| time (UTC) | temp F | wind direction | speed MPH | gust MPH | rain 1hr in | rain 24hr in | rain mn in | humidity % | barometer mb |
| 20260505025016 | 53 | 0.0 | 0.0 | 0.00 | 0.00 | 0.00 | 60 | 1014.9 | |
| 20260505024016 | 53 | 0.0 | 0.0 | 0.00 | 0.00 | 0.00 | 60 | 1014.8 | |
| 20260505023037 | 53 | 0.0 | 0.0 | 0.00 | 0.00 | 0.00 | 60 | 1014.6 | |
| 20260505022017 | 53 | 277 | 0.0 | 1.0 | 0.00 | 0.00 | 0.00 | 60 | 1014.8 |
| 20260505021015 | 53 | 3 | 0.0 | 1.0 | 0.00 | 0.00 | 0.00 | 59 | 1014.7 |
| 20260505020015 | 54 | 65 | 0.0 | 3.0 | 0.00 | 0.00 | 0.00 | 55 | 1014.7 |
| 20260505015015 | 55 | 46 | 0.0 | 2.0 | 0.00 | 0.00 | 0.00 | 53 | 1014.3 |
| 20260505014036 | 55 | 82 | 0.0 | 1.0 | 0.00 | 0.00 | 0.00 | 53 | 1013.7 |
| 20260505013016 | 56 | 114 | 0.0 | 1.0 | 0.00 | 0.00 | 0.00 | 52 | 1014.1 |
| 20260505012017 | 57 | 53 | 0.0 | 2.0 | 0.00 | 0.00 | 0.00 | 50 | 1014.1 |
| 20260505011017 | 58 | 66 | 1.0 | 6.0 | 0.00 | 0.00 | 0.00 | 47 | 1013.8 |
| 20260505010015 | 58 | 326 | 0.0 | 2.0 | 0.00 | 0.00 | 0.00 | 45 | 1013.7 |
| 20260505005015 | 59 | 273 | 0.0 | 2.0 | 0.00 | 0.00 | 0.00 | 44 | 1013.5 |
| 20260505004016 | 59 | 46 | 1.0 | 3.0 | 0.00 | 0.00 | 0.00 | 42 | 1013.5 |
| 20260505003036 | 60 | 64 | 0.0 | 4.0 | 0.00 | 0.00 | 0.00 | 41 | 1013.4 |
| 20260505002017 | 61 | 331 | 1.0 | 3.0 | 0.00 | 0.00 | 0.00 | 39 | 1013.2 |
| 20260505001017 | 61 | 270 | 0.0 | 2.0 | 0.00 | 0.00 | 0.00 | 37 | 1013.1 |
| 20260505000014 | 62 | 321 | 1.0 | 4.0 | 0.00 | 0.00 | 0.00 | 36 | 1013.0 |
| 20260504235015 | 62 | 298 | 1.0 | 4.0 | 0.00 | 0.00 | 0.00 | 36 | 1012.9 |
| 20260504234035 | 62 | 284 | 0.0 | 2.0 | 0.00 | 0.00 | 0.00 | 36 | 1013.2 |
| 20260504233016 | 63 | 45 | 1.0 | 5.0 | 0.00 | 0.00 | 0.00 | 36 | 1013.0 |
| 20260504232016 | 63 | 299 | 0.0 | 3.0 | 0.00 | 0.00 | 0.00 | 36 | 1013.0 |
| 20260504231017 | 63 | 235 | 2.0 | 7.0 | 0.00 | 0.00 | 0.00 | 36 | 1012.5 |
| 20260504230057 | 64 | 284 | 2.0 | 8.0 | 0.00 | 0.00 | 0.00 | 34 | 1012.2 |
| 20260504225015 | 64 | 346 | 1.0 | 4.0 | 0.00 | 0.00 | 0.00 | 33 | 1012.1 |
| 20260504224015 | 65 | 331 | 3.0 | 8.0 | 0.00 | 0.00 | 0.00 | 32 | 1012.1 |
| 20260504223016 | 67 | 4 | 2.0 | 8.0 | 0.00 | 0.00 | 0.00 | 28 | 1011.9 |
| 20260504222016 | 68 | 13 | 1.0 | 4.0 | 0.00 | 0.00 | 0.00 | 26 | 1011.9 |
| 20260504221016 | 69 | 330 | 1.0 | 7.0 | 0.00 | 0.00 | 0.00 | 26 | 1011.9 |
| 20260504220017 | 70 | 273 | 0.0 | 1.0 | 0.00 | 0.00 | 0.00 | 26 | 1011.6 |
| 20260504215017 | 71 | 315 | 0.0 | 1.0 | 0.00 | 0.00 | 0.00 | 25 | 1011.6 |
| 20260504214015 | 71 | 50 | 1.0 | 4.0 | 0.00 | 0.00 | 0.00 | 25 | 1011.7 |
| 20260504213015 | 73 | 57 | 1.0 | 3.0 | 0.00 | 0.00 | 0.00 | 24 | 1011.8 |
| 20260504211516 | 73 | 53 | 1.0 | 4.0 | 0.00 | 0.00 | 0.00 | 24 | 1012.0 |
| 20260504210516 | 73 | 92 | 1.0 | 3.0 | 0.00 | 0.00 | 0.00 | 25 | 1012.1 |
| 20260504205517 | 74 | 97 | 1.0 | 8.0 | 0.00 | 0.00 | 0.00 | 24 | 1012.1 |
| 20260504204517 | 74 | 68 | 1.0 | 3.0 | 0.00 | 0.00 | 0.00 | 25 | 1012.2 |
| 20260504203515 | 73 | 81 | 1.0 | 4.0 | 0.00 | 0.00 | 0.00 | 26 | 1012.3 |
| 20260504202515 | 72 | 22 | 1.0 | 5.0 | 0.00 | 0.00 | 0.00 | 25 | 1012.4 |
| 20260504201535 | 71 | 344 | 1.0 | 3.0 | 0.00 | 0.00 | 0.00 | 25 | 1012.4 |
| 20260504200516 | 70 | 314 | 1.0 | 4.0 | 0.00 | 0.00 | 0.00 | 25 | 1012.5 |
| 20260504195517 | 71 | 57 | 1.0 | 4.0 | 0.00 | 0.00 | 0.00 | 26 | 1012.5 |
| 20260504194517 | 70 | 289 | 2.0 | 8.0 | 0.00 | 0.00 | 0.00 | 26 | 1012.4 |
| 20260504193537 | 69 | 285 | 2.0 | 8.0 | 0.00 | 0.00 | 0.00 | 26 | 1012.5 |
| 20260504192535 | 68 | 39 | 1.0 | 5.0 | 0.00 | 0.00 | 0.00 | 26 | 1012.5 |
| 20260504191515 | 68 | 334 | 1.0 | 7.0 | 0.00 | 0.00 | 0.00 | 26 | 1012.5 |
| 20260504190515 | 69 | 347 | 2.0 | 7.0 | 0.00 | 0.00 | 0.00 | 25 | 1012.5 |
| 20260504185516 | 69 | 67 | 1.0 | 2.0 | 0.00 | 0.00 | 0.00 | 24 | 1012.5 |
| 20260504184536 | 70 | 100 | 0.0 | 2.0 | 0.00 | 0.00 | 0.00 | 23 | 1012.5 |
| 20260504183517 | 71 | 46 | 1.0 | 6.0 | 0.00 | 0.00 | 0.00 | 23 | 1012.5 |
| 20260504182517 | 72 | 2 | 0.0 | 1.0 | 0.00 | 0.00 | 0.00 | 23 | 1012.6 |
| 20260504181515 | 73 | 26 | 1.0 | 4.0 | 0.00 | 0.00 | 0.00 | 21 | 1012.7 |
| 20260504180515 | 74 | 260 | 0.0 | 2.0 | 0.00 | 0.00 | 0.00 | 22 | 1012.7 |
| 20260504175516 | 74 | 61 | 1.0 | 5.0 | 0.00 | 0.00 | 0.00 | 22 | 1012.8 |
| 20260504174516 | 73 | 125 | 1.0 | 7.0 | 0.00 | 0.00 | 0.00 | 22 | 1013.0 |
| 20260504173517 | 73 | 90 | 1.0 | 2.0 | 0.00 | 0.00 | 0.00 | 22 | 1013.2 |
| 20260504172517 | 73 | 193 | 1.0 | 3.0 | 0.00 | 0.00 | 0.00 | 24 | 1013.3 |
| 20260504171535 | 72 | 251 | 0.0 | 3.0 | 0.00 | 0.00 | 0.00 | 23 | 1013.5 |
| 20260504170515 | 71 | 112 | 1.0 | 3.0 | 0.00 | 0.00 | 0.00 | 24 | 1013.6 |
| 20260504150517 | 63 | 206 | 1.0 | 5.0 | 0.00 | 0.00 | 0.00 | 29 | 1014.5 |
| 20260504140517 | 56 | 284 | 0.0 | 2.0 | 0.00 | 0.00 | 0.00 | 40 | 1014.4 |
| 20260504130516 | 50 | 131 | 1.0 | 2.0 | 0.00 | 0.00 | 0.00 | 44 | 1014.3 |
| 20260504110536 | 48 | 135 | 1.0 | 4.0 | 0.00 | 0.00 | 0.00 | 48 | 1014.3 |
| 20260504100536 | 48 | 134 | 1.0 | 3.0 | 0.00 | 0.00 | 0.00 | 49 | 1014.6 |
| 20260504081517 | 49 | 0.0 | 0.0 | 0.00 | 0.00 | 0.00 | 49 | 1015.5 | |
| 20260504080515 | 48 | 129 | 0.0 | 1.0 | 0.00 | 0.00 | 0.00 | 51 | 1015.5 |
| 20260504050516 | 55 | 134 | 1.0 | 2.0 | 0.00 | 0.00 | 0.00 | 41 | 1016.1 |
| 20260504045517 | 55 | 126 | 0.0 | 2.0 | 0.00 | 0.00 | 0.00 | 41 | 1016.2 |
| 20260504044515 | 56 | 125 | 0.0 | 1.0 | 0.00 | 0.00 | 0.00 | 41 | 1016.4 |
| 20260504043515 | 56 | 128 | 0.0 | 1.0 | 0.00 | 0.00 | 0.00 | 41 | 1016.5 |
| 20260504042515 | 57 | 133 | 1.0 | 3.0 | 0.00 | 0.00 | 0.00 | 40 | 1016.5 |
| 20260504041516 | 57 | 133 | 2.0 | 3.0 | 0.00 | 0.00 | 0.00 | 39 | 1016.5 |
| 20260504040516 | 57 | 133 | 1.0 | 2.0 | 0.00 | 0.00 | 0.00 | 39 | 1016.6 |
| 20260504035516 | 57 | 136 | 1.0 | 2.0 | 0.00 | 0.00 | 0.00 | 40 | 1016.8 |
| 20260504034517 | 58 | 140 | 0.0 | 2.0 | 0.00 | 0.00 | 0.00 | 40 | 1016.7 |
| 20260504033514 | 58 | 65 | 0.0 | 1.0 | 0.00 | 0.00 | 0.00 | 38 | 1016.6 |
| 20260504032515 | 58 | 0.0 | 0.0 | 0.00 | 0.00 | 0.00 | 37 | 1016.7 | |
| 20260504031515 | 59 | 0.0 | 0.0 | 0.00 | 0.00 | 0.00 | 36 | 1016.7 | |
| 20260504030536 | 59 | 0.0 | 0.0 | 0.00 | 0.00 | 0.00 | 35 | 1016.6 | |
| 20260504025516 | 59 | 0.0 | 0.0 | 0.00 | 0.00 | 0.00 | 35 | 1016.6 |